Tracking 35334 objects as of 12-Sep-2026
HD Live streaming from Space Station
objects crossing your sky now

STARLINK-1669


STARLINK-1669 is no longer on orbit
STARLINK-1669 is classified as:


NORAD ID: 47624
Int'l Code: 2021-012E
Launch date: February 16, 2021
Source: United States (US)
Launch site: AIR FORCE EASTERN TEST RANGE (AFETR)
Decay date: 2026-04-25
Your satellite tracking list
Your tracking list is empty




NASA's NSSDC Master Catalog

Two Line Element Set (TLE):
1 47624U 21012E   26114.89445721  .13358059  12536-4  35260-3 0  9997
2 47624  53.0100 115.6370 0004488 283.1636  76.8911 16.45576092288487
Source of the keplerian elements: AFSPC